Location: Trebic
(49.2170°N, 15.8830°E)
Time: 02:34:05
(UTC+02:00)

Transit 4A - Pass Details

Date: 31 July 2019
Orbit: 863 x 981 km, 66.8° (Epoch: 21 August)

Event Time Altitude Azimuth Distance (km) Brightness Sun altitude
Exits shadow 01:14:24 25° 237° (WSW) 1,855 9.1 -22.3°
Maximum altitude 01:18:13 63° 311° (NW) 1,089 8.3 -22.3°
Drops below altitude 10° 01:24:36 10° 32° (NNE) 2,735 11.2 -22.2°
Sets 01:27:12 0° 36° (NE) 3,678 12.0 -22.2°
